Weather History for Valladolid Airport, Spain

Change the Weather History Date:

Saturday, November 3, 2012

  Actual Average Record
Temperature  
Mean Temperature 55 °F -  
Max Temperature 60 °F - - ()
Min Temperature 50 °F - - ()
Degree Days  
Heating Degree Days 10    
Growing Degree Days 5 (Base 50)    
Moisture  
Dew Point 54 °F    
Average Humidity 95    
Maximum Humidity 100    
Minimum Humidity 82    
Precipitation  
Precipitation 0.00 in - - ()
Sea Level Pressure  
Sea Level Pressure 29.75 in    
Wind  
Wind Speed 9 mph ()    
Max Wind Speed 22 mph    
Max Gust Speed -    
Visibility 6.0 miles    
Events Rain    
T = Trace of Precipitation, MM = Missing Value Source: Averaged Metar Reports

Daily Weather History Graph

Daily Weather History Graph

Search for Another Location

Airport:

Trip Planner

Search our weather history database for the weather conditions in past years. The results will help you decide how hot, cold, wet, or windy it might be!

Date:

Astronomy

Nov. 03, 2012 Rise Set
Actual Time 7:54 AM CET 6:11 PM CET
Civil Twilight 7:25 AM CET 6:40 PM CET
Nautical Twilight 6:52 AM CET 7:13 PM CET
Astronomical Twilight 6:19 AM CET 7:45 PM CET
Moon 9:37 PM CET (11/3) 11:50 AM CET (11/3)
Length of Visible Light 11h 14m
Length of Day
10h 16m
Waning Gibbous, 82% of the Moon is Illuminated
Nov 3
Waning Gibbous
Nov 7
Last Quarter
Nov 13
New
Nov 20
First Quarter
Nov 28
Full

Hourly Weather History & Observations

Time (CET) Temp. Dew Point Humidity Pressure Visibility Wind Dir Wind Speed Gust Speed Precip Events Conditions
6:00 AM 50.0 °F 48.2 °F 94% 29.77 in 6.2 mi SSW 5.8 mph - N/A   Scattered Clouds
6:30 AM 50.0 °F 48.2 °F 94% 29.77 in 6.2 mi SW 5.8 mph - N/A   Scattered Clouds
7:00 AM 50.0 °F 48.2 °F 94% 29.77 in 6.2 mi South 2.3 mph - N/A   Scattered Clouds
7:30 AM 50.0 °F 48.2 °F 94% 29.77 in 6.2 mi South 6.9 mph - N/A   Scattered Clouds
8:00 AM 50.0 °F 50.0 °F 100% 29.74 in 6.2 mi South 6.9 mph - N/A   Scattered Clouds
8:30 AM 50.0 °F 50.0 °F 100% 29.74 in 6.2 mi South 6.9 mph - N/A   Scattered Clouds
9:00 AM 50.0 °F 50.0 °F 100% 29.77 in 6.2 mi SSE 6.9 mph - N/A   Scattered Clouds
9:30 AM 50.0 °F 50.0 °F 100% 29.77 in 6.2 mi South 3.5 mph - N/A   Partly Cloudy
10:00 AM 50.0 °F 50.0 °F 100% 29.77 in 6.2 mi South 6.9 mph - N/A   Partly Cloudy
10:30 AM 51.8 °F 51.8 °F 100% 29.77 in 6.2 mi South 8.1 mph - N/A   Scattered Clouds
11:00 AM 53.6 °F 51.8 °F 94% 29.74 in 6.2 mi South 5.8 mph - N/A   Scattered Clouds
11:30 AM 53.6 °F 51.8 °F 94% 29.74 in 6.2 mi South 9.2 mph - N/A   Scattered Clouds
12:00 PM 55.4 °F 53.6 °F 94% 29.77 in 6.2 mi SSW 8.1 mph - N/A   Scattered Clouds
12:30 PM 55.4 °F 53.6 °F 94% 29.77 in 6.2 mi SSW 8.1 mph - N/A   Mostly Cloudy
1:00 PM 57.2 °F 53.6 °F 88% 29.74 in 6.2 mi SSW 11.5 mph - N/A   Scattered Clouds
1:30 PM 59.0 °F 53.6 °F 82% 29.74 in 6.2 mi SW 13.8 mph - N/A   Mostly Cloudy
2:00 PM 59.0 °F 53.6 °F 82% 29.71 in 6.2 mi SW 17.3 mph - N/A   Mostly Cloudy
2:30 PM 60.8 °F 55.4 °F 82% 29.71 in 6.2 mi WSW 17.3 mph - N/A   Mostly Cloudy
3:00 PM 60.8 °F 55.4 °F 82% 29.71 in 6.2 mi WSW 18.4 mph - N/A   Mostly Cloudy
3:11 PM 60.8 °F 55.4 °F 82% 29.71 in - West 21.9 mph - N/A Rain Heavy Rain
3:30 PM 57.2 °F 57.2 °F 100% 29.71 in - West 20.7 mph - N/A Rain Rain
4:00 PM 59.0 °F 57.2 °F 94% 29.74 in 6.2 mi WSW 16.1 mph - N/A   Mostly Cloudy
4:30 PM 59.0 °F 57.2 °F 94% 29.74 in 6.2 mi WSW 19.6 mph - N/A   Mostly Cloudy
5:00 PM 59.0 °F 57.2 °F 94% 29.74 in 6.2 mi West 12.7 mph - N/A   Overcast
5:13 PM 57.2 °F 57.2 °F 100% 29.74 in 1.9 mi West 10.4 mph - N/A Rain Heavy Rain
5:30 PM 57.2 °F 57.2 °F 100% 29.74 in 3.7 mi West 9.2 mph - N/A Rain Heavy Rain
6:00 PM 57.2 °F 57.2 °F 100% 29.74 in 6.2 mi WSW 9.2 mph - N/A   Overcast
6:30 PM 57.2 °F 57.2 °F 100% 29.74 in 6.2 mi WSW 13.8 mph - N/A   Overcast
7:00 PM 55.4 °F 55.4 °F 100% 29.74 in 6.2 mi West 12.7 mph - N/A   Overcast
7:30 PM 55.4 °F 55.4 °F 100% 29.74 in 6.2 mi West 11.5 mph - N/A   Overcast
8:00 PM 55.4 °F 55.4 °F 100% 29.77 in 6.2 mi West 10.4 mph - N/A   Overcast
8:30 PM 55.4 °F 55.4 °F 100% 29.77 in 6.2 mi WSW 13.8 mph - N/A   Overcast
9:00 PM 53.6 °F 53.6 °F 100% 29.77 in 6.2 mi WSW 10.4 mph - N/A   Overcast
9:30 PM 55.4 °F 55.4 °F 100% 29.77 in 6.2 mi SW 9.2 mph - N/A   Overcast
10:00 PM 55.4 °F 55.4 °F 100% 29.77 in 6.2 mi WSW 13.8 mph - N/A   Overcast
10:30 PM 55.4 °F 55.4 °F 100% 29.77 in 6.2 mi WSW 11.5 mph - N/A   Overcast